When you browse on this site, cookies collect data to enhance your experience and personalize the content and advertising you see.
Visit our Privacy Policy to learn more. By continuing to use the site, you agree to this use of cookies and data.
  • In Hungary
  • List of Countries
  • For 7 days
  • Water Temperature
  • Satellite Maps
  • Weather Map
  • News
  • Weather Widgets
  • user-avatar
    Login

    Hourly Weather Stolyarovka

    Today, 20 November, Tuesday

    Time Temperature Precipitation Wind Pressure Humidity
    00:00 -5°C° 0 mm 2 mps 751 mmHg 67%
    01:00 -5°C° 0 mm 2 mps 750 mmHg 69%
    02:00 -5°C° 0 mm 2 mps 750 mmHg 71%
    03:00 -5°C° 0 mm 2 mps 750 mmHg 73%
    04:00 -3°C° 0 mm 1 mps 750 mmHg 78%
    05:00 -3°C° 0 mm 1 mps 750 mmHg 80%
    06:00 -3°C° 0 mm 1 mps 750 mmHg 82%
    07:00 -3°C° 0 mm 1 mps 750 mmHg 85%
    08:00 -2°C° 0 mm 1 mps 750 mmHg 85%
    09:00 -2°C° 0 mm 1 mps 750 mmHg 86%
    10:00 -4°C° 0 mm 2 mps 749 mmHg 86%
    11:00 -3°C° 0 mm 2 mps 749 mmHg 85%
    12:00 -3°C° 0 mm 2 mps 749 mmHg 85%
    13:00 -2°C° 0 mm 2 mps 749 mmHg 84%
    14:00 -2°C° 0 mm 2 mps 748 mmHg 86%
    15:00 -3°C° 0 mm 2 mps 748 mmHg 88%
    16:00 -3°C° 0 mm 2 mps 748 mmHg 90%
    17:00 -3°C° 0 mm 2 mps 748 mmHg 91%
    18:00 -3°C° 0 mm 2 mps 748 mmHg 92%
    19:00 -3°C° 0 mm 2 mps 747 mmHg 93%
    20:00 -3°C° 0.1 mm 2 mps 747 mmHg 94%
    21:00 -4°C° 0.1 mm 3 mps 747 mmHg 94%
    22:00 -4°C° 0.1 mm 3 mps 746 mmHg 94%
    23:00 -4°C° 0.1 mm 3 mps 746 mmHg 95%

    Tomorrow, 21 November, Wednesday

    Time Temperature Precipitation Wind Pressure Humidity
    00:00 -4°C° 0.1 mm 3 mps 746 mmHg 95%
    01:00 -4°C° 0.1 mm 3 mps 745 mmHg 95%
    02:00 -4°C° 0.1 mm 3 mps 745 mmHg 95%
    03:00 -4°C° 0.1 mm 3 mps 745 mmHg 95%
    04:00 -4°C° 0.1 mm 3 mps 744 mmHg 95%
    05:00 -4°C° 0.1 mm 3 mps 744 mmHg 94%
    06:00 -4°C° 0.1 mm 3 mps 743 mmHg 93%
    07:00 -4°C° 0.1 mm 4 mps 743 mmHg 93%
    08:00 -4°C° 0.1 mm 4 mps 742 mmHg 91%
    09:00 -4°C° 0.1 mm 4 mps 741 mmHg 89%
    10:00 -5°C° 0.1 mm 5 mps 741 mmHg 87%
    11:00 -5°C° 0.1 mm 5 mps 740 mmHg 86%
    12:00 -5°C° 0.1 mm 6 mps 739 mmHg 84%
    13:00 -5°C° 0.1 mm 6 mps 739 mmHg 83%
    14:00 -5°C° 0.4 mm 6 mps 738 mmHg 85%
    15:00 -5°C° 0.4 mm 6 mps 738 mmHg 86%
    16:00 -5°C° 0.4 mm 6 mps 737 mmHg 88%
    17:00 -5°C° 0.2 mm 6 mps 737 mmHg 88%
    18:00 -5°C° 0.2 mm 6 mps 736 mmHg 87%
    19:00 -6°C° 0.2 mm 5 mps 736 mmHg 87%
    20:00 -6°C° 0.1 mm 5 mps 736 mmHg 87%
    21:00 -6°C° 0.1 mm 5 mps 735 mmHg 87%
    22:00 -6°C° 0.1 mm 5 mps 735 mmHg 87%
    23:00 -7°C° 0.1 mm 5 mps 735 mmHg 87%

    Day after tomorrow, 22 November, Thursday

    Time Temperature Precipitation Wind Pressure Humidity
    00:00 -7°C° 0.1 mm 5 mps 735 mmHg 87%
    01:00 -8°C° 0.1 mm 5 mps 735 mmHg 87%
    02:00 -8°C° 0.1 mm 5 mps 735 mmHg 86%
    03:00 -8°C° 0.1 mm 5 mps 735 mmHg 85%
    04:00 -8°C° 0.1 mm 5 mps 736 mmHg 84%
    05:00 -8°C° 0.1 mm 5 mps 736 mmHg 83%
    06:00 -10°C° 0.1 mm 5 mps 736 mmHg 83%
    07:00 -10°C° 0.1 mm 5 mps 736 mmHg 83%
    08:00 -10°C° 0 mm 5 mps 736 mmHg 83%
    09:00 -11°C° 0 mm 5 mps 736 mmHg 83%
    10:00 -11°C° 0 mm 5 mps 737 mmHg 83%
    11:00 -10°C° 0.1 mm 5 mps 737 mmHg 81%
    12:00 -10°C° 0.1 mm 5 mps 737 mmHg 79%
    13:00 -10°C° 0.1 mm 5 mps 736 mmHg 76%
    14:00 -10°C° 0.1 mm 5 mps 737 mmHg 76%
    15:00 -9°C° 0.1 mm 4 mps 737 mmHg 76%
    16:00 -10°C° 0.1 mm 4 mps 737 mmHg 76%
    17:00 -9°C° 0 mm 3 mps 737 mmHg 80%
    18:00 -10°C° 0 mm 3 mps 737 mmHg 83%
    19:00 -12°C° 0 mm 3 mps 737 mmHg 87%
    20:00 -10°C° 0 mm 3 mps 737 mmHg 87%
    21:00 -11°C° 0 mm 4 mps 736 mmHg 88%
    22:00 -12°C° 0 mm 5 mps 736 mmHg 89%
    23:00 -11°C° 0.2 mm 6 mps 735 mmHg 87%

    23 November, Friday

    Time Temperature Precipitation Wind Pressure Humidity
    00:00 -12°C° 0.2 mm 7 mps 735 mmHg 86%
    01:00 -11°C° 0.2 mm 8 mps 734 mmHg 85%
    02:00 -11°C° 0.1 mm 8 mps 734 mmHg 85%
    03:00 -11°C° 0.1 mm 8 mps 733 mmHg 85%
    04:00 -11°C° 0.1 mm 8 mps 732 mmHg 85%
    05:00 -11°C° 0.4 mm 8 mps 732 mmHg 86%
    06:00 -11°C° 0.4 mm 8 mps 731 mmHg 87%
    07:00 -11°C° 0.4 mm 8 mps 730 mmHg 88%
    08:00 -11°C° 0.4 mm 8 mps 730 mmHg 88%
    09:00 -11°C° 0.4 mm 8 mps 729 mmHg 88%
    10:00 -11°C° 0.4 mm 8 mps 729 mmHg 88%
    11:00 -9°C° 0.2 mm 7 mps 729 mmHg 88%
    12:00 -9°C° 0.2 mm 6 mps 728 mmHg 88%
    13:00 -8°C° 0.2 mm 5 mps 728 mmHg 88%
    14:00 -8°C° 0.2 mm 4 mps 728 mmHg 90%
    15:00 -7°C° 0.2 mm 3 mps 729 mmHg 91%
    16:00 -6°C° 0.2 mm 2 mps 729 mmHg 93%
    17:00 -8°C° 0.2 mm 3 mps 730 mmHg 92%
    18:00 -10°C° 0.2 mm 5 mps 730 mmHg 92%
    19:00 -10°C° 0.2 mm 6 mps 731 mmHg 92%
    20:00 -12°C° 0.2 mm 7 mps 732 mmHg 91%
    21:00 -13°C° 0.2 mm 8 mps 733 mmHg 89%
    22:00 -15°C° 0.2 mm 9 mps 734 mmHg 87%
    23:00 -15°C° 0.1 mm 9 mps 735 mmHg 86%

    24 November, Saturday

    Time Temperature Precipitation Wind Pressure Humidity
    00:00 -16°C° 0.1 mm 9 mps 737 mmHg 84%
    01:00 -17°C° 0.1 mm 9 mps 738 mmHg 82%
    02:00 -17°C° 0 mm 8 mps 739 mmHg 84%
    03:00 -18°C° 0 mm 7 mps 740 mmHg 86%
    04:00 -17°C° 0 mm 6 mps 742 mmHg 89%
    05:00 -17°C° 0 mm 5 mps 743 mmHg 90%
    06:00 -16°C° 0 mm 4 mps 744 mmHg 90%
    07:00 -16°C° 0 mm 4 mps 745 mmHg 91%
    08:00 -15°C° 0 mm 4 mps 745 mmHg 91%
    09:00 -15°C° 0 mm 4 mps 746 mmHg 91%
    10:00 -15°C° 0 mm 4 mps 746 mmHg 91%
    11:00 -13°C° 0 mm 5 mps 746 mmHg 90%
    12:00 -12°C° 0 mm 5 mps 746 mmHg 88%
    13:00 -11°C° 0 mm 6 mps 746 mmHg 87%
    14:00 -11°C° 0 mm 6 mps 746 mmHg 87%
    15:00 -12°C° 0 mm 7 mps 746 mmHg 87%
    16:00 -12°C° 0 mm 7 mps 746 mmHg 87%
    17:00 -12°C° 0 mm 7 mps 746 mmHg 86%
    18:00 -12°C° 0 mm 8 mps 746 mmHg 85%
    19:00 -13°C° 0 mm 8 mps 746 mmHg 83%
    20:00 -12°C° 0 mm 8 mps 745 mmHg 83%
    21:00 -12°C° 0 mm 8 mps 745 mmHg 83%
    22:00 -12°C° 0 mm 8 mps 745 mmHg 83%
    23:00 -12°C° 0.1 mm 8 mps 744 mmHg 83%

    25 November, Sunday

    Time Temperature Precipitation Wind Pressure Humidity
    00:00 -11°C° 0.1 mm 8 mps 744 mmHg 83%
    01:00 -11°C° 0.1 mm 8 mps 744 mmHg 83%
    02:00 -11°C° 0.1 mm 8 mps 744 mmHg 84%
    03:00 -11°C° 0.1 mm 8 mps 744 mmHg 84%
    04:00 -11°C° 0.1 mm 8 mps 744 mmHg 85%
    05:00 -11°C° 0.1 mm 7 mps 744 mmHg 86%
    06:00 -11°C° 0.1 mm 7 mps 744 mmHg 87%
    07:00 -11°C° 0.1 mm 7 mps 744 mmHg 88%
    08:00 -9°C° 0.1 mm 7 mps 745 mmHg 88%
    09:00 -9°C° 0.1 mm 6 mps 745 mmHg 89%
    10:00 -9°C° 0.1 mm 6 mps 745 mmHg 89%
    11:00 -9°C° 0 mm 6 mps 745 mmHg 89%
    12:00 -8°C° 0 mm 6 mps 746 mmHg 89%
    13:00 -7°C° 0 mm 5 mps 746 mmHg 88%
    14:00 -7°C° 0 mm 5 mps 746 mmHg 89%
    15:00 -7°C° 0 mm 5 mps 746 mmHg 90%
    16:00 -8°C° 0 mm 4 mps 746 mmHg 90%
    17:00 -8°C° 0 mm 4 mps 746 mmHg 91%
    18:00 -8°C° 0 mm 4 mps 746 mmHg 92%
    19:00 -9°C° 0 mm 4 mps 746 mmHg 92%
    20:00 -9°C° 0 mm 4 mps 746 mmHg 93%
    21:00 -9°C° 0 mm 4 mps 746 mmHg 93%
    22:00 -9°C° 0 mm 4 mps 745 mmHg 93%
    23:00 -9°C° 0 mm 4 mps 745 mmHg 93%
    Show more